AirNav   Textron
 
 310 users online  

2GE7 Petty Farms Airport
Crandall, Georgia, USA

GOING TO CRANDALL?


FAA INFORMATION EFFECTIVE 09 NOVEMBER 2017

Location

FAA Identifier: 2GE7
Lat/Long: 34-57-29.0000N / 084-46-45.0000W
34-57.483333N / 084-46.750000W
34.9580556 / -84.7791667
(estimated)
Elevation: 760 ft. / 232 m (estimated)
Variation: 03W (1995)
From city: 7 miles NW of CRANDALL, GA
Time zone: UTC -5 (UTC -4 during Daylight Saving Time)
Zip code: 30711

Airport Operations

Airport use: Private use. Permission required prior to landing
Activation date: 07/1999
Control tower: no
ARTCC: ATLANTA CENTER
FSS: MACON FLIGHT SERVICE STATION
Attendance: UNATNDD
Wind indicator: yes
Segmented circle: no

Airport Communications

WX AWOS-A at FGU (13 nm NW): 122.7 (423-236-4028)
WX AWOS-3 at DNN (15 nm S): 127.65 (706-278-7010)
WX AWOS-3 at RZR (15 nm N): 120.475 ((423) 479-6823)

Nearby radio navigation aids

VOR radial/distance  VOR name  Freq  Var
GQOr090/18.4CHOO CHOO VORTAC115.8001E

 
NDB name  Hdg/Dist  Freq  Var  ID
DAISY126/22.434102WCQN -.-. --.- -.
MC MINN COUNTY205/28.324203WMMI -- -- ..
MARK ANTON171/32.339404WDTE -.. - .
CALHOUN017/34.232305WOUK --- ..- -.-

Airport Services

Runway Information

Runway 1/19

Dimensions: 2500 x 50 ft. / 762 x 15 m
Surface: turf, in good condition
RUNWAY 1  RUNWAY 19
Traffic pattern: leftleft
Obstructions: 4 ft. fence, 100 ft. from runway20 ft. pline, 500 ft. from runway

Airport Ownership and Management from official FAA records

Ownership: Privately-owned
Owner: JAMES F. PETTY
459 GREGORY MILL ROAD
CRANDALL, GA 30711
Phone 706-695-4374
Manager: JAMES F. PETTY
459 GREGORY MILL ROAD
CRANDALL, GA 30711
Phone 706-695-4374

Airport Operational Statistics

Aircraft based on the field: 1
Single engine airplanes: 1
    

Instrument Procedures

There are no published instrument procedures at 2GE7.

Some nearby airports with instrument procedures:

KDNN - Dalton Municipal Airport (15 nm S)
KRZR - Cleveland Regional Jetport (15 nm N)
KCHA - Lovell Field Airport (21 nm W)
1A3 - Martin Campbell Field Airport (22 nm E)
KMMI - McMinn County Airport (29 nm N)
 
Loc | Ops | Rwys | IFR | FBO | Links
Com | Nav | Svcs | Stats | Notes


 
Area around 2GE7 (Petty Farms Airport)
 
Road maps at: MapQuest Bing Google
 
Aerial photo
No photo
 
Sectional chart

 
Airport distance calculator
Flying to Petty Farms Airport? Find the distance to fly.

From to 2GE7

Sunrise and sunset
Times for 25-Nov-2017
 Local
(UTC-5)
 Zulu
(UTC)
Morning civil twilight06:5711:57
Sunrise07:2412:24
Sunset17:2822:28
Evening civil twilight17:5622:56

Current date and time
Zulu (UTC)  25-Nov-2017 09:17:33
Local (UTC-5)  25-Nov-2017 04:17:33
 
METAR
KRZR 
15nm N 
250855Z AUTO 24004KT 10SM CLR 06/05 A2993 RMK A01
KCHA 
21nm W 
250853Z AUTO 00000KT 8SM CLR 03/02 A2996 RMK AO2 SLP145 T00330017 53001
KDNN 
22nm SW 
250855Z AUTO 00000KT 10SM CLR 02/02 A2999 RMK AO2
K49A 
23nm SE 
250855Z AUTO 36004KT 7SM CLR A3000 RMK AO2 LTG DSNT N
KMMI 
29nm N 
250855Z AUTO 00000KT 10SM CLR M01/M01 A2996 RMK
K9A5 
30nm SW 
250855Z AUTO 00000KT 7SM CLR 00/M01 A2997 RMK AO2 T00011007
TAF
KCHA 
21nm W 
250520Z 2506/2606 00000KT P6SM BKN250 FM251300 22004KT P6SM SCT120 BKN150 FM251700 27007KT P6SM BKN120 FM252200 33006KT P6SM SCT200
NOTAMs
Click for the latest NOTAMs
NOTAMs are issued by the DoD/FAA and will open in a separate window not controlled by AirNav.

 

 
 

Would you like to see your business listed on this page?

 If your business provides an interesting product or service to pilots, flight crews, aircraft, or users of the Petty Farms Airport, you should consider listing it here.  To start the listing process, click on the button below
 
Add a business
 

Other Pages about Petty Farms Airport

Update a link
 
Copyright © AirNav, LLC. All rights reserved. Privacy Policy  Contact